Weather History for Evergreen, AL

Change the Weather History Date:

Wednesday, January 1, 2014

  Actual Average (KPRN) Record (KPRN)
Temperature  
Mean Temperature 48 °F -  
Max Temperature 52 °F 60 °F 79 °F (1952)
Min Temperature 43 °F 40 °F 20 °F (1928)
Degree Days  
Heating Degree Days 18    
Moisture  
Dew Point 44 °F    
Average Humidity 86    
Maximum Humidity 93    
Minimum Humidity 77    
Precipitation  
Precipitation 0.03 in - - ()
Sea Level Pressure  
Sea Level Pressure 30.24 in    
Wind  
Wind Speed 2 mph (ENE)    
Max Wind Speed 5 mph    
Max Gust Speed -    
Visibility 8 miles    
Events Rain    
Averages and records for this station are not official NWS values.
T = Trace of Precipitation, MM = Missing Value Source: NWS Daily Summary

Daily Weather History Graph

Daily Weather History Graph

Search for Another Location

Airport:

Trip Planner

Search our weather history database for the weather conditions in past years. The results will help you decide how hot, cold, wet, or windy it might be!

Date:

Astronomy

Jan. 01, 2014 Rise Set
Actual Time 6:47 AM CST 4:56 PM CST
Civil Twilight 6:20 AM CST 5:23 PM CST
Nautical Twilight 5:50 AM CST 5:53 PM CST
Astronomical Twilight 5:20 AM CST 6:22 PM CST
Moon 6:41 AM CST (1/1) 5:35 PM CST (1/1)
Length of Visible Light 11h 02m
Length of Day
10h 08m
New Moon, 0% of the Moon is Illuminated
Jan 1
New Moon
Jan 7
First Quarter
Jan 15
Full
Jan 23
Last Quarter
Jan 30
New

Hourly Weather History & Observations

Time (CST) Temp. Windchill Dew Point Humidity Pressure Visibility Wind Dir Wind Speed Gust Speed Precip Events Conditions
12:53 AM 43.0 °F - 39.0 °F 86% 30.34 in 10.0 mi Calm Calm - 0.00 in Rain Light Rain
1:53 AM 44.1 °F - 39.9 °F 85% 30.34 in 9.0 mi Calm Calm - 0.00 in   Overcast
2:53 AM 43.0 °F 40.3 °F 39.9 °F 89% 30.32 in 10.0 mi SSE 4.6 mph - N/A   Overcast
3:53 AM 44.1 °F - 39.9 °F 85% 30.30 in 10.0 mi Calm Calm - 0.00 in   Overcast
4:53 AM 44.1 °F - 39.9 °F 85% 30.30 in 10.0 mi Calm Calm - 0.01 in   Overcast
5:53 AM 44.1 °F - 41.0 °F 89% 30.31 in 10.0 mi Calm Calm - 0.00 in   Overcast
6:53 AM 44.1 °F 41.5 °F 41.0 °F 89% 30.29 in 10.0 mi ESE 4.6 mph - N/A   Overcast
7:53 AM 45.0 °F 43.5 °F 41.0 °F 86% 30.31 in 8.0 mi East 3.5 mph - N/A   Overcast
8:53 AM 46.0 °F 44.8 °F 42.1 °F 86% 30.32 in 8.0 mi ESE 3.5 mph - 0.00 in Rain Light Rain
9:53 AM 46.9 °F - 43.0 °F 86% 30.32 in 9.0 mi Calm Calm - 0.00 in   Overcast
10:53 AM 48.0 °F - 44.1 °F 86% 30.30 in 10.0 mi Calm Calm - N/A   Overcast
11:40 AM 48.9 °F - 44.1 °F 83% 30.28 in 10.0 mi NE 3.5 mph - N/A   Overcast
11:53 AM 50.0 °F - 44.1 °F 80% 30.27 in 10.0 mi ENE 3.5 mph - N/A   Overcast
12:53 PM 52.0 °F - 45.0 °F 77% 30.23 in 10.0 mi Variable 3.5 mph - N/A   Overcast
1:53 PM 52.0 °F - 46.0 °F 80% 30.20 in 10.0 mi Calm Calm - N/A   Overcast
2:53 PM 52.0 °F - 46.9 °F 83% 30.19 in 10.0 mi ENE 4.6 mph - 0.00 in Rain Light Rain
3:53 PM 52.0 °F - 48.0 °F 86% 30.17 in 9.0 mi ENE 4.6 mph - 0.00 in Rain Light Rain
4:53 PM 51.1 °F - 48.0 °F 89% 30.15 in 9.0 mi NE 3.5 mph - 0.01 in   Mostly Cloudy
5:53 PM 50.0 °F - 48.0 °F 93% 30.15 in 7.0 mi ESE 4.6 mph - 0.00 in Rain Light Rain
6:53 PM 50.0 °F - 46.9 °F 89% 30.16 in 6.0 mi NNW 3.5 mph - 0.00 in   Partly Cloudy
7:53 PM 50.0 °F - 46.9 °F 89% 30.16 in 7.0 mi Calm Calm - N/A   Mostly Cloudy
8:53 PM 50.0 °F - 46.9 °F 89% 30.15 in 5.0 mi WNW 3.5 mph - N/A   Overcast
9:53 PM 50.0 °F - 46.9 °F 89% 30.15 in 5.0 mi Calm Calm - 0.00 in   Overcast
10:53 PM 50.0 °F - 46.9 °F 89% 30.12 in 4.0 mi Calm Calm - 0.01 in Rain Light Rain
11:53 PM 50.0 °F - 48.0 °F 93% 30.10 in 5.0 mi Calm Calm - 0.00 in   Mostly Cloudy